Location: Killam
(52.7910°N, 111.8608°W)
Time: 05:54:27
(UTC+00:00)

Transit 2A - Pass Details

Date: 22 February 2026
Orbit: 590 x 954 km, 66.7° (Epoch: 14 March)

Event Time Altitude Azimuth Distance (km) Brightness Sun altitude
Rises 04:26:37 0° 317° (NW) 3,577 10.4 -32.3°
Reaches altitude 10° 04:29:28 10° 308° (NW) 2,591 9.6 -32.7°
Maximum altitude 04:34:43 32° 248° (WSW) 1,426 7.6 -33.4°
Enters shadow 04:34:56 32° 243° (WSW) 1,425 7.5 -33.4°
